Miscellaneous Local Product
Issued by NWS North Platte, NE

Home | Current Version | Previous Version | Text Only | Print | Product List | Glossary On
Versions: 1 2 3 4 5 6 7 8 9 10 11 12 13 14 15 16 17 18 19 20 21 22 23 24 25 26 27 28 29 30 31 32 33 34 35 36 37 38 39 40 41 42 43 44 45 46 47 48 49 50
000
AXUS43 KLBF 012110
MISLBF


WESTERN AND NORTH CENTRAL NEBRASKA HOURLY WEATHER ROUNDUP
NATIONAL WEATHER SERVICE NORTH PLATTE NE
400 PM CDT SAT OCT 01 2016

NOTE: "FAIR" INDICATES FEW OR NO CLOUDS BELOW 12,000 FEET WITH NO
SIGNIFICANT WEATHER AND/OR OBSTRUCTIONS TO VISIBILITY.

NOTE: STATIONS NOT REPORTING VARIABLES SUCH AS SKY/WEATHER OR
PRESSURE ARE PROVIDED BY RAWS AND APRS NETWORKS AND ARE NOT UNDER
NATIONAL WEATHER SERVICE QUALITY CONTROL.

...OBSERVATIONS IN AND NEAR THE EASTERN PANHANDLE OF NEBRASKA...

CITY           SKY/WX    TMP DP  RH WIND       PRES   REMARKS
PINE RIDGE     MOSUNNY   84  46  26 SW8       29.94F
CHADRON        SUNNY     84  43  23 MISG      29.93F
ALLIANCE       SUNNY     82  46  28 S12G20    29.98F
SIDNEY         SUNNY     81  44  27 S8        30.02F
CRESCENT LAKE    N/A     80  49  33 S7G16       N/A
$$

...OBSERVATIONS IN NORTHERN NEBRASKA AND FAR SOUTHERN SOUTH DAKOTA...

CITY           SKY/WX    TMP DP  RH WIND       PRES   REMARKS
WINNER         FAIR      79  50  36 SE16      29.97F
VALENTINE      CLOUDY    77  49  37 S12G23    29.98F
THEDFORD       SUNNY     79  50  36 S15G21    30.01F
AINSWORTH      SUNNY     78  51  40 S16       30.00F
O`NEILL        SUNNY     75  39  27 SE10      30.04F
ORD            SUNNY     75  45  34 SE10      30.03F
BROKEN BOW     SUNNY     76  49  38 S14       30.03F
VALENTINE NWR    N/A     77  51  39 S13G20      N/A
BUTTE            N/A     73  47  39 SE13G21     N/A
HALSEY           N/A     77  50  38 S8G18       N/A
EWING            N/A     75  51  43 S6          N/A
$$

...OBSERVATIONS IN SOUTHWEST NEBRASKA AND FAR NORTHEAST COLORADO...

CITY           SKY/WX    TMP DP  RH WIND       PRES   REMARKS
WRAY           CLOUDY    81  46  30 SE9       30.03
HOLYOKE        FAIR      81  46  30 SE15      30.02F
IMPERIAL       SUNNY     78  47  33 SE15      30.02F
OGALLALA       SUNNY     81  45  27 S12G20    30.01F
NORTH PLATTE   SUNNY     79  49  34 S10       30.01F
MCCOOK         SUNNY     77  49  37 S14G21    30.03F
LEXINGTON      SUNNY     75  47  36 SE10      30.04F
STAPLETON        N/A     78  52  40 CALM        N/A
GOTHENBURG       N/A     73  46  38 S8          N/A
CALLAWAY         N/A     76  53  44 S14         N/A
$$

...OBSERVATIONS IN CENTRAL LINCOLN COUNTY AREA...

CITY           SKY/WX    TMP DP  RH WIND       PRES   REMARKS
N.P. AIRPORT   SUNNY     79  49  34 S10       30.01F
N.P. DOWNTOWN    N/A     78  52  40 S3G12       N/A
N.P. SOUTHEAST   N/A     77  51  39 S9G17       N/A
N.P. HILLCREST   N/A     77  51  39 S10G20      N/A
$$

...SOME OBSERVATIONS FROM AROUND THE REGION...

CITY           SKY/WX    TMP DP  RH WIND       PRES   REMARKS
DENVER         MOSUNNY   79  39  23 S7        30.07F
LARAMIE        PTSUNNY   69  35  28 W7        30.15F
CHEYENNE       CLOUDY    74  38  27 S10       30.10F
SCOTTSBLUFF    SUNNY     81  45  28 CALM      29.99F
RAPID CITY     SUNNY     81  49  32 SE9       29.94F
BISMARCK       SUNNY     77  50  38 S15G23    29.95F
PIERRE         SUNNY     79  49  34 SE16G29   29.94F
SIOUX FALLS    CLOUDY    70  54  56 S5        30.08S
OMAHA          CLOUDY    68  56  65 NW6       30.07F
GRAND ISLAND   SUNNY     74  45  35 SE6       30.06F
KANSAS CITY    CLOUDY    64  54  69 W5        30.08F
WICHITA        MOSUNNY   76  50  40 S9        30.04F
OKLAHOMA CITY  MOSUNNY   78  51  38 SE6       30.04F
DALLAS         MOSUNNY   84  49  29 S7        30.01F
AMARILLO       MOSUNNY   83  56  39 S18G26    30.01F
DODGE CITY     MOSUNNY   82  51  34 S10G21    30.01F
HAYS           MOSUNNY   79  48  34 SE13      30.03S
GOODLAND       SUNNY     75  50  41 SE13      30.04F
$$




USA.gov is the U.S. government's official web portal to all federal, state and local government web resources and services.